Flag for Venezuela Weather past 2 weeks in Barquisimeto, Venezuela

Now
73 °F

Overcast.


Feels Like: 73 °F
Forecast: 69 / 85 °F
Wind: 2 mph from East

Location: Barquisimeto Airport

Current Time: May 29, 2015 at 3:51:59 AM

Latest Report: May 29, 2015 at 1:30 AM


Visibility: N/A

Pressure: 29.98 "Hg

Humidity: 83%

Dew point: 68 °F

Location of BarquisimetoLocation

Historic Weather in Barquisimeto — Graph

°F

Barquisimeto temperature yesterday

Maximum temperature yesterday: 88 °F (at 4:30 PM)
Minimum temperature yesterday: 72 °F (at 5:30 AM)
Average temperature yesterday: 79 °F

Past Weeks' High & Low Weather Summary

 TemperatureHumidityPressure
High93 °F (May 21, 3:30 PM)94% (May 24, 5:30 AM)30.09 "Hg (May 24, 5:30 AM)
Low68 °F (May 27, 4:30 AM)34% (May 21, 3:30 PM)29.89 "Hg (May 21, 4:30 PM)
Average79 °F68%30.01 "Hg
* Reported May 14 1:30 AM — May 29 1:30 AM, Barquisimeto, Weather by CustomWeather, © 2015

Note: Actual official high and low records may vary slightly from our data, if they occured in-between our weather recording intervals... More about our weather records

Advertising

Barquisimeto weather history for previous 24 hours

 ConditionsComfort  
Time TempWeatherWind HumidityBarometerVisibility
1:30 AM
Fri, May 29
73 °FOvercast.2 mph83%29.98 "HgN/A
10:30 PM
Thu, May 28
75 °FPassing clouds.3 mph83%30.01 "HgN/A
9:30 PM75 °FPassing clouds.17 mph83%30.01 "HgN/A
8:30 PM77 °FPassing clouds.8 mph79%29.98 "HgN/A
7:30 PM79 °FPassing clouds.12 mph70%29.95 "HgN/A
6:30 PM82 °FPassing clouds.9 mph58%29.95 "HgN/A
5:30 PM86 °FPartly sunny.10 mph52%29.92 "HgN/A
4:30 PM88 °FScattered clouds.7 mph49%29.92 "HgN/A
3:30 PM86 °FScattered clouds.6 mph52%29.98 "HgN/A
2:30 PM84 °FScattered clouds.8 mph55%29.98 "HgN/A
1:30 PM82 °FPartly sunny.8 mph58%29.98 "HgN/A
12:30 PM82 °FPartly sunny.8 mph58%30.01 "HgN/A
11:30 AM81 °FPartly sunny.12 mph62%30.01 "HgN/A
10:30 AM81 °FPartly sunny.12 mph62%30.01 "HgN/A
9:30 AM79 °FPartly sunny.8 mph65%30.04 "HgN/A
8:30 AM77 °FPartly sunny.7 mph74%30.01 "HgN/A
7:30 AM75 °FPartly sunny.6 mph78%30.01 "HgN/A
6:30 AM73 °FBroken clouds.6 mph89%29.98 "HgN/A
5:30 AM72 °FPartly sunny.6 mph88%29.98 "HgN/A
Weather by CustomWeather, © 2015

See weather overviewHow to use our weather pages